Amy C. Mc Allister — WCZ9520 — position and weather

sailwx.info

Track history (hours):
 
Tides and Currents Weather Stations Pressure Air Temp Water Temp Dewpoint Dewpoint Depression Visibility Wind Speed Wind Dir Waves Ship Positions

Amy C. Mc Allister

Owner: MC ALLISTER TOWING & TRANSPORTATION INC, NEW YORK, NY. More information available from US FCC via Universal Licensing System and Coast Guard Vessel Documentation Center.

Last reported at 2014-Oct-20 10:33 UTC. Time now 2014-Oct-20 11:14 UTC.
Position N 40°48' W 073°53'.

Length 27 m; draft 4.9 m.

Type: Towing. MMSI: 366995040.

Date/timePositionNaut miles runAvg speedWind from/ knotsBaromVisibWave heightAir tempDewpointWater temp
2014-Oct-20 10:33N 40°48' W 073°53'19 6.1
2014-Oct-20 07:27N 40°57' W 073°32'7 7.5
2014-Oct-20 06:33N 41°00' W 073°24'7 7.5
2014-Oct-20 05:33N 41°01' W 073°14'10 7.6
2014-Oct-20 04:10N 41°03' W 073°00'5 7.6
2014-Oct-20 03:30N 41°05' W 072°54'7 7.7
2014-Oct-20 02:34N 41°06' W 072°44'8 7.7
2014-Oct-20 01:33N 41°08' W 072°34'8 8.5
2014-Oct-20 00:34N 41°10' W 072°23'9 8.9
2014-Oct-19 23:33N 41°13' W 072°12'9 9.2
2014-Oct-19 22:33N 41°14' W 071°60'10 9.6
2014-Oct-19 21:33N 41°16' W 071°47'9 9.0
2014-Oct-19 20:33N 41°18' W 071°36'9 8.6
2014-Oct-19 19:33N 41°18' W 071°24'8 8.4
2014-Oct-19 18:33N 41°21' W 071°14'9 8.5
2014-Oct-19 17:28N 41°25' W 071°03'37 0.9
2014-Oct-18 00:24N 41°50' W 070°26'23 0.5
2014-Oct-16 00:14N 41°33' W 070°46'12 6.9
2014-Oct-15 22:28N 41°27' W 071°00'7 7.6
2014-Oct-15 21:33N 41°23' W 071°08'8 7.7
2014-Oct-15 20:33N 41°22' W 071°18'7 6.7
2014-Oct-15 19:34N 41°19' W 071°26'6 5.8
2014-Oct-15 18:33N 41°18' W 071°34'5 5.3
2014-Oct-15 17:34N 41°17' W 071°41'5 5.3
2014-Oct-15 16:34N 41°16' W 071°48'6 5.7
2014-Oct-15 15:33N 41°15' W 071°55'7 6.5
2014-Oct-15 14:33N 41°14' W 072°04'7 7.2
2014-Oct-15 13:33N 41°13' W 072°13'8 8.0
2014-Oct-15 12:34N 41°11' W 072°24'8 8.1
2014-Oct-15 11:33N 41°10' W 072°35'8 8.0
2014-Oct-15 10:33N 41°11' W 072°45'5 5.1
2014-Oct-15 09:34N 41°12' W 072°52'6 5.3
2014-Oct-15 08:27N 41°18' W 072°54'0 0.0
2014-Oct-15 07:33N 41°18' W 072°54'0 0.0
2014-Oct-15 06:34N 41°18' W 072°54'0 0.0
2014-Oct-15 05:33N 41°18' W 072°54'0 0.0
2014-Oct-15 04:33N 41°18' W 072°54'0 0.0
2014-Oct-15 03:33N 41°18' W 072°54'0 0.0
2014-Oct-15 02:33N 41°18' W 072°54'4 3.8
2014-Oct-15 01:33N 41°14' W 072°55'7 6.6
2014-Oct-15 00:34N 41°09' W 072°60'8 8.4
2014-Oct-14 23:33N 41°04' W 073°10'9 9.2
2014-Oct-14 22:33N 41°01' W 073°21'9 9.0
2014-Oct-14 21:33N 40°57' W 073°32'9 8.6
2014-Oct-14 20:33N 40°54' W 073°42'8 7.4
2014-Oct-14 19:28N 40°48' W 073°50'7 7.3
2014-Oct-14 18:33N 40°45' W 073°58'8 7.7
2014-Oct-14 17:33N 40°39' W 074°04'7 6.4
2014-Oct-14 16:32N 40°37' W 074°12'1 0.7
2014-Oct-14 14:27N 40°38' W 074°12'2 1.2
2014-Oct-14 13:07N 40°38' W 074°10'0 0.0
2014-Oct-14 12:08N 40°38' W 074°10'0 0.0
2014-Oct-14 11:34N 40°38' W 074°10'0 0.0
2014-Oct-14 10:31N 40°38' W 074°10'0 0.0
2014-Oct-14 09:07N 40°38' W 074°10'0 0.0
2014-Oct-14 08:32N 40°38' W 074°10'0 0.0
2014-Oct-14 07:33N 40°38' W 074°10'0 0.0
2014-Oct-14 06:17N 40°38' W 074°10'2 2.9
2014-Oct-14 05:27N 40°39' W 074°07'4 3.8
2014-Oct-14 04:28N 40°38' W 074°12'5 0.8
2014-Oct-13 22:08N 40°39' W 074°05'2 0.8
2014-Oct-13 19:27N 40°39' W 074°02'0 0.0
2014-Oct-13 18:33N 40°39' W 074°02'0 0.0
2014-Oct-13 17:33N 40°39' W 074°02'0 0.0
2014-Oct-13 16:34N 40°39' W 074°02'0 0.0
2014-Oct-13 15:33N 40°39' W 074°02'0 0.0
2014-Oct-13 14:34N 40°39' W 074°02'0 0.0
2014-Oct-13 13:33N 40°39' W 074°02'0 0.0
2014-Oct-13 12:34N 40°39' W 074°02'0 0.0
2014-Oct-13 11:28N 40°39' W 074°02'0 0.0
2014-Oct-13 10:33N 40°39' W 074°02'0 0.0
2014-Oct-13 09:31N 40°39' W 074°02'0 0.0
2014-Oct-13 08:32N 40°39' W 074°02'0 0.0
2014-Oct-13 06:23N 40°39' W 074°02'0 0.0
2014-Oct-13 05:32N 40°39' W 074°02'0 0.0
2014-Oct-13 04:31N 40°39' W 074°02'0 0.0
2014-Oct-13 03:29N 40°39' W 074°02'0 0.0
2014-Oct-13 02:33N 40°39' W 074°02'0 0.0
2014-Oct-13 01:33N 40°39' W 074°02'0 0.0
2014-Oct-13 00:34N 40°39' W 074°02'0 0.0
2014-Oct-12 23:34N 40°39' W 074°02'0 0.0
2014-Oct-12 22:25N 40°39' W 074°02'0 0.0
2014-Oct-12 21:16N 40°39' W 074°02'0 0.0
2014-Oct-12 20:27N 40°39' W 074°02'0 0.0
2014-Oct-12 19:21N 40°39' W 074°02'0 0.0
2014-Oct-12 18:33N 40°39' W 074°02'0 0.0
2014-Oct-12 16:29N 40°39' W 074°02'0 0.0
2014-Oct-12 15:32N 40°39' W 074°02'0 0.0
2014-Oct-12 14:29N 40°39' W 074°02'4 1.9
2014-Oct-12 12:32N 40°42' W 073°60'7 7.3
2014-Oct-12 11:31N 40°48' W 073°54'7 6.7
2014-Oct-12 10:32N 40°51' W 073°46'16 8.1
2014-Oct-12 08:34N 40°59' W 073°28'8 8.2
2014-Oct-12 07:33N 41°01' W 073°17'9 8.6
2014-Oct-12 06:33N 41°02' W 073°06'9 9.2
2014-Oct-12 05:33N 41°05' W 072°54'10 9.6
2014-Oct-12 04:34N 41°07' W 072°42'1010.3
2014-Oct-12 03:34N 41°09' W 072°29'1110.9
2014-Oct-12 02:33N 41°12' W 072°15'1110.6
2014-Oct-12 01:33N 41°14' W 072°01'9 9.3
2014-Oct-12 00:33N 41°16' W 071°49'9 9.3
2014-Oct-11 23:34N 41°18' W 071°36'9 9.2
2014-Oct-11 22:34N 41°18' W 071°24'10 9.7
2014-Oct-11 21:33N 41°21' W 071°12'10 9.6
2014-Oct-11 20:31N 41°27' W 071°01'10 9.8
2014-Oct-11 19:31N 41°31' W 070°49'50 5.9
2014-Oct-11 11:03N 42°20' W 070°60'7 0.5
2014-Oct-10 20:16N 42°23' W 070°51'54 6.1
2014-Oct-10 11:24N 41°29' W 070°56'  
Track history (hours):
 
Tides and Currents Weather Stations Pressure Air Temp Water Temp Dewpoint Dewpoint Depression Visibility Wind Speed Wind Dir Waves Ship Positions

Amy C. Mc Allister

Owner: MC ALLISTER TOWING & TRANSPORTATION INC, NEW YORK, NY. More information available from US FCC via Universal Licensing System and Coast Guard Vessel Documentation Center.

Last reported at 2014-Oct-20 10:33 UTC. Time now 2014-Oct-20 11:14 UTC.
Position N 40°48' W 073°53'.

Length 27 m; draft 4.9 m.

Type: Towing. MMSI: 366995040.

Date/timePositionNaut miles runAvg speedWind from/ knotsBaromVisibWave heightAir tempDewpointWater temp
2014-Oct-20 10:33N 40°48' W 073°53'19 6.1
2014-Oct-20 07:27N 40°57' W 073°32'7 7.5
2014-Oct-20 06:33N 41°00' W 073°24'7 7.5
2014-Oct-20 05:33N 41°01' W 073°14'10 7.6
2014-Oct-20 04:10N 41°03' W 073°00'5 7.6
2014-Oct-20 03:30N 41°05' W 072°54'7 7.7
2014-Oct-20 02:34N 41°06' W 072°44'8 7.7
2014-Oct-20 01:33N 41°08' W 072°34'8 8.5
2014-Oct-20 00:34N 41°10' W 072°23'9 8.9
2014-Oct-19 23:33N 41°13' W 072°12'9 9.2
2014-Oct-19 22:33N 41°14' W 071°60'10 9.6
2014-Oct-19 21:33N 41°16' W 071°47'9 9.0
2014-Oct-19 20:33N 41°18' W 071°36'9 8.6
2014-Oct-19 19:33N 41°18' W 071°24'8 8.4
2014-Oct-19 18:33N 41°21' W 071°14'9 8.5
2014-Oct-19 17:28N 41°25' W 071°03'37 0.9
2014-Oct-18 00:24N 41°50' W 070°26'23 0.5
2014-Oct-16 00:14N 41°33' W 070°46'12 6.9
2014-Oct-15 22:28N 41°27' W 071°00'7 7.6
2014-Oct-15 21:33N 41°23' W 071°08'8 7.7
2014-Oct-15 20:33N 41°22' W 071°18'7 6.7
2014-Oct-15 19:34N 41°19' W 071°26'6 5.8
2014-Oct-15 18:33N 41°18' W 071°34'5 5.3
2014-Oct-15 17:34N 41°17' W 071°41'5 5.3
2014-Oct-15 16:34N 41°16' W 071°48'6 5.7
2014-Oct-15 15:33N 41°15' W 071°55'7 6.5
2014-Oct-15 14:33N 41°14' W 072°04'7 7.2
2014-Oct-15 13:33N 41°13' W 072°13'8 8.0
2014-Oct-15 12:34N 41°11' W 072°24'8 8.1
2014-Oct-15 11:33N 41°10' W 072°35'8 8.0
2014-Oct-15 10:33N 41°11' W 072°45'5 5.1
2014-Oct-15 09:34N 41°12' W 072°52'6 5.3
2014-Oct-15 08:27N 41°18' W 072°54'0 0.0
2014-Oct-15 07:33N 41°18' W 072°54'0 0.0
2014-Oct-15 06:34N 41°18' W 072°54'0 0.0
2014-Oct-15 05:33N 41°18' W 072°54'0 0.0
2014-Oct-15 04:33N 41°18' W 072°54'0 0.0
2014-Oct-15 03:33N 41°18' W 072°54'0 0.0
2014-Oct-15 02:33N 41°18' W 072°54'4 3.8
2014-Oct-15 01:33N 41°14' W 072°55'7 6.6
2014-Oct-15 00:34N 41°09' W 072°60'8 8.4
2014-Oct-14 23:33N 41°04' W 073°10'9 9.2
2014-Oct-14 22:33N 41°01' W 073°21'9 9.0
2014-Oct-14 21:33N 40°57' W 073°32'9 8.6
2014-Oct-14 20:33N 40°54' W 073°42'8 7.4
2014-Oct-14 19:28N 40°48' W 073°50'7 7.3
2014-Oct-14 18:33N 40°45' W 073°58'8 7.7
2014-Oct-14 17:33N 40°39' W 074°04'7 6.4
2014-Oct-14 16:32N 40°37' W 074°12'1 0.7
2014-Oct-14 14:27N 40°38' W 074°12'2 1.2
2014-Oct-14 13:07N 40°38' W 074°10'0 0.0
2014-Oct-14 12:08N 40°38' W 074°10'0 0.0
2014-Oct-14 11:34N 40°38' W 074°10'0 0.0
2014-Oct-14 10:31N 40°38' W 074°10'0 0.0
2014-Oct-14 09:07N 40°38' W 074°10'0 0.0
2014-Oct-14 08:32N 40°38' W 074°10'0 0.0
2014-Oct-14 07:33N 40°38' W 074°10'0 0.0
2014-Oct-14 06:17N 40°38' W 074°10'2 2.9
2014-Oct-14 05:27N 40°39' W 074°07'4 3.8
2014-Oct-14 04:28N 40°38' W 074°12'5 0.8
2014-Oct-13 22:08N 40°39' W 074°05'2 0.8
2014-Oct-13 19:27N 40°39' W 074°02'0 0.0
2014-Oct-13 18:33N 40°39' W 074°02'0 0.0
2014-Oct-13 17:33N 40°39' W 074°02'0 0.0
2014-Oct-13 16:34N 40°39' W 074°02'0 0.0
2014-Oct-13 15:33N 40°39' W 074°02'0 0.0
2014-Oct-13 14:34N 40°39' W 074°02'0 0.0
2014-Oct-13 13:33N 40°39' W 074°02'0 0.0
2014-Oct-13 12:34N 40°39' W 074°02'0 0.0
2014-Oct-13 11:28N 40°39' W 074°02'0 0.0
2014-Oct-13 10:33N 40°39' W 074°02'0 0.0
2014-Oct-13 09:31N 40°39' W 074°02'0 0.0
2014-Oct-13 08:32N 40°39' W 074°02'0 0.0
2014-Oct-13 06:23N 40°39' W 074°02'0 0.0
2014-Oct-13 05:32N 40°39' W 074°02'0 0.0
2014-Oct-13 04:31N 40°39' W 074°02'0 0.0
2014-Oct-13 03:29N 40°39' W 074°02'0 0.0
2014-Oct-13 02:33N 40°39' W 074°02'0 0.0
2014-Oct-13 01:33N 40°39' W 074°02'0 0.0
2014-Oct-13 00:34N 40°39' W 074°02'0 0.0
2014-Oct-12 23:34N 40°39' W 074°02'0 0.0
2014-Oct-12 22:25N 40°39' W 074°02'0 0.0
2014-Oct-12 21:16N 40°39' W 074°02'0 0.0
2014-Oct-12 20:27N 40°39' W 074°02'0 0.0
2014-Oct-12 19:21N 40°39' W 074°02'0 0.0
2014-Oct-12 18:33N 40°39' W 074°02'0 0.0
2014-Oct-12 16:29N 40°39' W 074°02'0 0.0
2014-Oct-12 15:32N 40°39' W 074°02'0 0.0
2014-Oct-12 14:29N 40°39' W 074°02'4 1.9
2014-Oct-12 12:32N 40°42' W 073°60'7 7.3
2014-Oct-12 11:31N 40°48' W 073°54'7 6.7
2014-Oct-12 10:32N 40°51' W 073°46'16 8.1
2014-Oct-12 08:34N 40°59' W 073°28'8 8.2
2014-Oct-12 07:33N 41°01' W 073°17'9 8.6
2014-Oct-12 06:33N 41°02' W 073°06'9 9.2
2014-Oct-12 05:33N 41°05' W 072°54'10 9.6
2014-Oct-12 04:34N 41°07' W 072°42'1010.3
2014-Oct-12 03:34N 41°09' W 072°29'1110.9
2014-Oct-12 02:33N 41°12' W 072°15'1110.6
2014-Oct-12 01:33N 41°14' W 072°01'9 9.3
2014-Oct-12 00:33N 41°16' W 071°49'9 9.3
2014-Oct-11 23:34N 41°18' W 071°36'9 9.2
2014-Oct-11 22:34N 41°18' W 071°24'10 9.7
2014-Oct-11 21:33N 41°21' W 071°12'10 9.6
2014-Oct-11 20:31N 41°27' W 071°01'10 9.8
2014-Oct-11 19:31N 41°31' W 070°49'50 5.9
2014-Oct-11 11:03N 42°20' W 070°60'7 0.5
2014-Oct-10 20:16N 42°23' W 070°51'54 6.1
2014-Oct-10 11:24N 41°29' W 070°56'  

Dump ship's entire track history